FW8892 Weather Reports


Display with metric or nautical units.
time (UTC)temp
F
wind
direction
speed
MPH
gust
MPH
rain 1hr
in
rain 24hr
in
rain mn
in
humidity
%
barometer
mb
20260510225029 77 292 1.0 6.0 0.00 0.00 0.00 56 1016.2
20260510224548 78 0 1.0 5.0 0.00 0.00 0.00 57 1016.2
20260510224029 78 0 1.0 5.0 0.00 0.00 0.00 57 1016.3
20260510223529 78 299 1.0 5.0 0.00 0.00 0.00 56 1016.4
20260510223053 78 360 1.0 9.0 0.00 0.00 0.00 56 1016.4
20260510222529 78 312 1.0 9.0 0.00 0.00 0.00 57 1016.3
20260510222028 79 322 3.0 9.0 0.00 0.00 0.00 54 1016.3
20260510221548 79 350 1.0 8.0 0.00 0.00 0.00 54 1016.3
20260510221030 80 49 2.0 8.0 0.00 0.00 0.00 52 1016.3
20260510220527 80 304 1.0 8.0 0.00 0.00 0.00 52 1016.2
20260510220054 81 307 1.0 8.0 0.00 0.00 0.00 52 1016.2
20260510215529 81 329 1.0 8.0 0.00 0.00 0.00 53 1016.3
20260510215029 81 300 3.0 8.0 0.00 0.00 0.00 51 1016.3
20260510214544 81 321 0.0 7.0 0.00 0.00 0.00 52 1016.1
20260510214029 81 285 1.0 7.0 0.00 0.00 0.00 52 1016.2
20260510213530 81 263 2.0 5.0 0.00 0.00 0.00 53 1016.1
20260510213046 81 322 1.0 5.0 0.00 0.00 0.00 53 1016.0
20260510212529 81 347 2.0 5.0 0.00 0.00 0.00 52 1016.1
20260510212028 81 345 1.0 6.0 0.00 0.00 0.00 52 1016.1
20260510211544 81 329 1.0 6.0 0.00 0.00 0.00 54 1016.2
20260510211028 81 0 0.0 4.0 0.00 0.00 0.00 55 1016.1
20260510210529 81 0 0.0 6.0 0.00 0.00 0.00 55 1016.2
20260510210041 81 272 0.0 6.0 0.00 0.00 0.00 55 1016.2
20260510205530 81 298 2.0 6.0 0.00 0.00 0.00 54 1016.1
20260510205029 81 0 1.0 5.0 0.00 0.00 0.00 55 1016.1
20260510204545 82 294 1.0 5.0 0.00 0.00 0.00 54 1016.2
20260510204028 82 323 1.0 5.0 0.00 0.00 0.00 53 1016.2
20260510203529 83 355 1.0 4.0 0.00 0.00 0.00 55 1016.2
20260510203048 83 360 0.0 3.0 0.00 0.00 0.00 52 1016.2
20260510202530 83 250 0.0 4.0 0.00 0.00 0.00 54 1016.3
20260510202030 83 319 1.0 6.0 0.00 0.00 0.00 53 1016.3
20260510201547 83 0 1.0 6.0 0.00 0.00 0.00 54 1016.2
20260510201029 83 317 1.0 3.0 0.00 0.00 0.00 53 1016.3
20260510200527 82 0 1.0 2.0 0.00 0.00 0.00 53 1016.3
20260510200047 82 0 1.0 5.0 0.00 0.00 0.00 56 1016.3
20260510195529 82 284 1.0 5.0 0.00 0.00 0.00 54 1016.4
20260510195029 82 308 1.0 5.0 0.00 0.00 0.00 56 1016.3
20260510194544 83 5 0.0 7.0 0.00 0.00 0.00 53 1016.3
20260510194029 82 293 0.0 7.0 0.00 0.00 0.00 54 1016.4
20260510193529 83 30 2.0 6.0 0.00 0.00 0.00 51 1016.4
20260510193052 83 5 1.0 3.0 0.00 0.00 0.00 51 1016.5
20260510192531 83 228 1.0 4.0 0.00 0.00 0.00 47 1016.4
20260510192030 83 252 1.0 7.0 0.00 0.00 0.00 44 1016.3
20260510191554 84 267 1.0 7.0 0.00 0.00 0.00 45 1016.3
20260510191029 84 301 1.0 6.0 0.00 0.00 0.00 44 1016.4
20260510190529 84 234 1.0 8.0 0.00 0.00 0.00 46 1016.3
20260510190054 84 239 1.0 8.0 0.00 0.00 0.00 47 1016.4
20260510185529 84 194 1.0 4.0 0.00 0.00 0.00 44 1016.2
20260510185028 84 194 1.0 5.0 0.00 0.00 0.00 50 1016.2
20260510184548 83 254 1.0 5.0 0.00 0.00 0.00 49 1016.2
20260510184029 83 5 1.0 3.0 0.00 0.00 0.00 49 1016.3
20260510183529 83 281 1.0 6.0 0.00 0.00 0.00 49 1016.3
20260510183048 83 286 1.0 6.0 0.00 0.00 0.00 47 1016.3
20260510182528 84 254 1.0 8.0 0.00 0.00 0.00 46 1016.3
20260510182056 84 208 2.0 8.0 0.00 0.00 0.00 47 1016.3
20260510181541 84 266 1.0 5.0 0.00 0.00 0.00 47 1016.4
20260510181030 83 0 1.0 6.0 0.00 0.00 0.00 49 1016.4
20260510180529 83 308 1.0 7.0 0.00 0.00 0.00 49 1016.4
20260510180049 83 273 1.0 7.0 0.00 0.00 0.00 49 1016.4
20260510175529 83 211 2.0 6.0 0.00 0.00 0.00 46 1016.6
20260510175027 83 342 1.0 6.0 0.00 0.00 0.00 49 1016.5
20260510174547 83 236 1.0 6.0 0.00 0.00 0.00 50 1016.7
20260510174032 83 238 1.0 4.0 0.00 0.00 0.00 49 1016.7
20260510173529 83 284 1.0 5.0 0.00 0.00 0.00 49 1016.8
20260510173046 82 291 2.0 7.0 0.00 0.00 0.00 51 1016.9
20260510172527 82 226 1.0 7.0 0.00 0.00 0.00 54 1016.9
20260510172030 81 285 1.0 6.0 0.00 0.00 0.00 47 1016.8
20260510171547 82 290 2.0 7.0 0.00 0.00 0.00 47 1017.0
20260510171028 82 298 1.0 7.0 0.00 0.00 0.00 47 1017.0
20260510170527 83 232 1.0 9.0 0.00 0.00 0.00 46 1017.1
20260510170040 82 132 1.0 10.0 0.00 0.00 0.00 51 1017.0
20260510165530 82 269 4.0 10.0 0.00 0.00 0.00 46 1016.9
20260510165029 82 212 3.0 10.0 0.00 0.00 0.00 48 1016.9
20260510164540 82 219 4.0 10.0 0.00 0.00 0.00 46 1017.0
20260510164029 82 271 2.0 9.0 0.00 0.00 0.00 50 1016.9
20260510163530 82 238 2.0 9.0 0.00 0.00 0.00 51 1016.8
20260510163047 82 220 3.0 7.0 0.00 0.00 0.00 52 1016.9
20260510162530 82 239 1.0 6.0 0.00 0.00 0.00 56 1016.8
20260510162027 81 281 2.0 6.0 0.00 0.00 0.00 53 1016.8
20260510161547 81 304 1.0 6.0 0.00 0.00 0.00 55 1016.8
20260510161028 81 221 2.0 8.0 0.00 0.00 0.00 55 1016.7
20260510160528 81 254 2.0 8.0 0.00 0.00 0.00 57 1017.0
20260510160100 81 229 1.0 6.0 0.00 0.00 0.00 56 1016.7
20260510155529 80 190 2.0 6.0 0.00 0.00 0.00 56 1016.7
20260510155029 80 236 2.0 6.0 0.00 0.00 0.00 60 1016.7
20260510154541 79 243 2.0 8.0 0.00 0.00 0.00 58 1016.7
20260510154028 79 233 3.0 8.0 0.00 0.00 0.00 58 1016.6
20260510153533 79 196 2.0 9.0 0.00 0.00 0.00 57 1016.6
20260510153043 79 221 2.0 9.0 0.00 0.00 0.00 57 1016.5
20260510152529 79 224 1.0 8.0 0.00 0.00 0.00 57 1016.6
20260510152027 80 252 1.0 8.0 0.00 0.00 0.00 59 1016.5
20260510151542 80 199 1.0 6.0 0.00 0.00 0.00 59 1016.4
20260510151029 79 265 2.0 7.0 0.00 0.00 0.00 59 1016.5
20260510150531 79 199 2.0 7.0 0.00 0.00 0.00 61 1016.4
20260510150052 78 200 1.0 7.0 0.00 0.00 0.00 61 1016.3
20260510145527 78 253 1.0 7.0 0.00 0.00 0.00 63 1016.6
20260510145028 77 232 2.0 7.0 0.00 0.00 0.00 64 1016.6
20260510144547 77 280 3.0 7.0 0.00 0.00 0.00 65 1016.7
20260510144030 77 263 2.0 4.0 0.00 0.00 0.00 65 1016.8
20260510143528 77 255 1.0 5.0 0.00 0.00 0.00 65 1016.6
20260510143047 77 258 1.0 7.0 0.00 0.00 0.00 67 1016.5
20260510142528 76 207 3.0 7.0 0.00 0.00 0.00 68 1016.4
20260510142029 76 291 1.0 7.0 0.00 0.00 0.00 72 1016.5
20260510141547 76 0 1.0 7.0 0.00 0.00 0.00 71 1016.6
20260510141031 75 232 0.0 3.0 0.00 0.00 0.00 72 1016.6
20260510140529 75 0 1.0 4.0 0.00 0.00 0.00 73 1016.6
20260510140045 75 242 1.0 5.0 0.00 0.00 0.00 71 1016.6
20260510135530 74 225 2.0 5.0 0.00 0.00 0.00 74 1016.5
20260510135028 74 223 1.0 5.0 0.00 0.00 0.00 76 1016.4
20260510134551 73 214 0.0 3.0 0.00 0.00 0.00 76 1016.5
20260510134027 72 252 1.0 5.0 0.00 0.00 0.00 77 1016.6
20260510133530 72 254 2.0 5.0 0.00 0.00 0.00 76 1016.3
20260510133044 72 225 1.0 4.0 0.00 0.00 0.00 76 1016.2
20260510132527 72 227 1.0 5.0 0.00 0.00 0.00 77 1016.3
20260510132029 72 204 1.0 5.0 0.00 0.00 0.00 79 1016.3
20260510131552 71 190 0.0 4.0 0.00 0.00 0.00 80 1016.3
20260510131029 71 0 0.0 4.0 0.00 0.00 0.00 80 1016.3
20260510130529 70 0 1.0 5.0 0.00 0.00 0.00 80 1016.2
20260510130045 70 187 2.0 5.0 0.00 0.00 0.00 80 1016.2
20260510125529 69 208 0.0 2.0 0.00 0.00 0.00 83 1016.3
20260510125029 68 0 0.0 2.0 0.00 0.00 0.00 83 1016.2
20260510124549 67 0 0.0 2.0 0.00 0.00 0.00 83 1016.2
20260510124030 67 0 1.0 3.0 0.00 0.00 0.00 85 1016.1
20260510123529 65 0 0.0 3.0 0.00 0.00 0.00 86 1016.3
20260510123049 64 0 0.0 3.0 0.00 0.00 0.00 88 1016.3
20260510122528 64 0 0.0 3.0 0.00 0.00 0.00 89 1016.2
20260510122028 63 0 0.0 3.0 0.00 0.00 0.00 89 1016.1
20260510121548 62 0 0.0 2.0 0.00 0.00 0.00 92 1016.1
20260510121029 61 0 0.0 4.0 0.00 0.00 0.00 94 1016.0
20260510120529 60 206 0.0 4.0 0.00 0.00 0.00 95 1015.9
20260510120049 59 344 1.0 4.0 0.00 0.00 0.00 96 1016.2
20260510115527 58 0 0.0 2.0 0.00 0.00 0.00 97 1015.9
20260510115029 58 151 0.0 2.0 0.00 0.00 0.00 98 1015.9
20260510114544 57 0 0.0 0.0 0.00 0.00 0.00 98 1015.7
20260510114029 56 0 0.0 0.0 0.00 0.00 0.00 98 1015.5
20260510113529 55 0 0.0 0.0 0.00 0.00 0.00 98 1015.5
20260510113043 54 0 0.0 0.0 0.00 0.00 0.00 98 1015.3
20260510112528 54 0 0.0 0.0 0.00 0.00 0.00 97 1015.2
20260510112029 53 0 0.0 0.0 0.00 0.00 0.00 96 1015.0
20260510111602 52 0 0.0 0.0 0.00 0.00 0.00 96 1015.0
20260510111029 52 0 0.0 0.0 0.00 0.00 0.00 95 1014.9
20260510110529 52 0 0.0 0.0 0.00 0.00 0.00 95 1014.8
20260510110048 53 0 0.0 0.0 0.00 0.00 0.00 95 1014.7
20260510105529 53 0 0.0 0.0 0.00 0.00 0.00 95 1014.6
20260510105029 53 0 0.0 0.0 0.00 0.00 0.00 95 1014.5
20260510104546 53 0 0.0 0.0 0.00 0.00 0.00 96 1014.5
20260510104029 53 0 0.0 0.0 0.00 0.00 0.00 96 1014.2
20260510103528 53 0 0.0 0.0 0.00 0.00 0.00 96 1014.2
20260510103047 53 0 0.0 2.0 0.00 0.00 0.00 96 1014.1
20260510102528 53 0 0.0 2.0 0.00 0.00 0.00 96 1014.0
20260510102031 53 0 0.0 2.0 0.00 0.00 0.00 96 1014.0
20260510101551 53 165 0.0 3.0 0.00 0.00 0.00 96 1014.0
20260510101029 53 0 0.0 5.0 0.00 0.00 0.00 97 1014.1
20260510100528 53 162 1.0 5.0 0.00 0.00 0.00 97 1014.1
20260510100043 53 155 0.0 4.0 0.00 0.00 0.00 97 1014.0
20260510095529 53 0 0.0 6.0 0.00 0.00 0.00 97 1014.2
20260510095030 52 155 1.0 6.0 0.00 0.00 0.00 97 1014.1
20260510094540 52 193 1.0 6.0 0.00 0.00 0.00 97 1014.2
20260510094029 51 156 1.0 4.0 0.00 0.00 0.00 96 1014.1
20260510093529 51 0 0.0 2.0 0.00 0.00 0.00 96 1014.1
20260510093100 51 148 0.0 2.0 0.00 0.00 0.00 96 1014.0
20260510092530 51 148 0.0 2.0 0.00 0.00 0.00 96 1014.0
20260510092029 51 148 1.0 3.0 0.00 0.00 0.00 96 1014.1
20260510091549 51 148 1.0 3.0 0.00 0.00 0.00 96 1014.0
20260510091029 51 148 1.0 3.0 0.00 0.00 0.00 96 1013.9
20260510090528 51 148 1.0 3.0 0.00 0.00 0.00 96 1013.9
20260510090115 51 0 0.0 3.0 0.00 0.00 0.00 96 1013.8
20260510085530 51 149 1.0 3.0 0.00 0.00 0.00 96 1013.8
20260510085027 51 0 0.0 3.0 0.00 0.00 0.00 96 1013.8
20260510084544 50 153 1.0 3.0 0.00 0.00 0.00 96 1013.9
20260510084053 50 153 0.0 2.0 0.00 0.00 0.00 96 1013.9
20260510083532 50 155 0.0 3.0 0.00 0.00 0.00 96 1013.9
20260510083048 50 0 0.0 3.0 0.00 0.00 0.00 96 1014.0
20260510082529 50 0 0.0 3.0 0.00 0.00 0.00 96 1014.0
20260510082028 50 166 0.0 3.0 0.00 0.00 0.00 96 1014.0
20260510081550 50 0 0.0 4.0 0.00 0.00 0.00 96 1013.9
20260510081029 50 153 0.0 4.0 0.00 0.00 0.00 95 1014.0
20260510080529 50 0 0.0 0.0 0.00 0.00 0.00 95 1013.8
20260510080054 50 0 0.0 0.0 0.00 0.00 0.00 95 1013.7
20260510075531 50 0 0.0 0.0 0.00 0.00 0.00 95 1013.6
20260510075029 50 0 0.0 0.0 0.00 0.00 0.00 95 1013.6
20260510074547 50 0 0.0 0.0 0.00 0.00 0.00 95 1013.3
20260510074029 50 0 0.0 0.0 0.00 0.00 0.00 95 1013.2
20260510073530 50 0 0.0 0.0 0.00 0.00 0.00 95 1013.2
20260510073047 50 0 0.0 0.0 0.00 0.00 0.00 95 1013.1
20260510072529 50 0 0.0 2.0 0.00 0.00 0.00 95 1013.1
20260510072031 50 0 0.0 2.0 0.00 0.00 0.00 95 1013.1
20260510071544 50 0 0.0 2.0 0.00 0.00 0.00 95 1013.1
20260510071029 50 0 0.0 2.0 0.00 0.00 0.00 94 1013.2
20260510070531 50 0 0.0 0.0 0.00 0.00 0.00 94 1013.2
20260510070046 51 0 0.0 0.0 0.00 0.00 0.00 94 1013.1
20260510065533 51 0 0.0 0.0 0.00 0.00 0.00 94 1013.0
20260510065029 51 0 0.0 0.0 0.00 0.00 0.00 95 1013.3
20260510064551 51 0 0.0 0.0 0.00 0.00 0.00 95 1013.3
20260510064029 51 0 0.0 0.0 0.00 0.00 0.00 95 1013.2
20260510063530 51 0 0.0 0.0 0.00 0.00 0.00 94 1013.1
20260510063048 51 0 0.0 0.0 0.00 0.00 0.00 94 1013.2
20260510062530 51 0 0.0 0.0 0.00 0.00 0.00 94 1013.1
20260510062027 51 0 0.0 0.0 0.00 0.00 0.00 94 1013.2
20260510061546 52 0 0.0 0.0 0.00 0.00 0.00 93 1013.1
20260510061030 52 0 0.0 0.0 0.00 0.00 0.00 94 1013.1
20260510060530 52 0 0.0 0.0 0.00 0.00 0.00 94 1013.1
20260510060047 52 0 0.0 0.0 0.00 0.00 0.00 94 1013.1
20260510055528 52 0 0.0 0.0 0.00 0.00 0.00 94 1013.2
20260510055029 52 0 0.0 0.0 0.00 0.00 0.00 94 1013.3
20260510054545 52 0 0.0 0.0 0.00 0.00 0.00 94 1013.2
20260510054030 52 0 0.0 0.0 0.00 0.00 0.00 93 1013.3
20260510053530 52 0 0.0 0.0 0.00 0.00 0.00 92 1013.1
20260510053043 52 0 0.0 0.0 0.00 0.00 0.00 92 1013.2
20260510052530 52 0 0.0 0.0 0.00 0.00 0.00 92 1013.2
20260510052029 53 0 0.0 0.0 0.00 0.00 0.00 92 1013.2
20260510051545 53 0 0.0 0.0 0.00 0.00 0.00 92 1013.2
20260510051029 53 0 0.0 0.0 0.00 0.00 0.00 92 1013.2
20260510050527 53 0 0.0 0.0 0.00 0.00 0.00 92 1013.2
20260510050047 53 0 0.0 0.0 0.00 0.00 0.00 92 1013.2
20260510045532 53 0 0.0 0.0 0.00 0.00 0.00 92 1013.3
20260510045031 53 0 0.0 0.0 0.00 0.00 0.00 91 1013.2
20260510044605 54 0 0.0 0.0 0.00 0.00 0.00 91 1013.2
20260510044029 54 0 0.0 0.0 0.00 0.00 0.00 91 1013.1
20260510043529 54 0 0.0 0.0 0.00 0.00 0.00 91 1013.1
20260510043047 54 0 0.0 0.0 0.00 0.00 0.00 90 1013.1
20260510042529 54 0 0.0 1.0 0.00 0.00 0.00 90 1013.2
20260510042029 54 0 0.0 1.0 0.00 0.00 0.00 90 1013.2
20260510041547 55 0 0.0 1.0 0.00 0.00 0.00 90 1013.2
20260510041032 55 0 0.0 0.0 0.00 0.00 0.00 90 1013.2
20260510040528 55 0 0.0 0.0 0.00 0.00 0.00 90 1013.2
20260510040053 55 0 0.0 0.0 0.00 0.00 0.00 90 1013.1
20260510035529 55 0 0.0 0.0 0.00 0.00 0.00 90 1013.2
20260510035030 55 0 0.0 0.0 0.00 0.00 0.00 89 1013.1
20260510034549 56 0 0.0 0.0 0.00 0.00 0.00 89 1013.1
20260510034028 56 0 0.0 0.0 0.00 0.00 0.00 89 1013.2
20260510033527 56 0 0.0 0.0 0.00 0.00 0.00 88 1013.1
20260510033047 56 0 0.0 0.0 0.00 0.00 0.00 87 1013.2
20260510032530 56 0 0.0 0.0 0.00 0.00 0.00 87 1013.3
20260510032029 56 0 0.0 0.0 0.00 0.00 0.00 86 1013.1
20260510031547 56 0 0.0 0.0 0.00 0.00 0.00 86 1013.1
20260510031029 57 0 0.0 0.0 0.00 0.00 0.00 85 1013.1
20260510030530 57 0 0.0 0.0 0.00 0.00 0.00 85 1013.2
20260510030045 57 0 0.0 0.0 0.00 0.00 0.00 84 1013.0
20260510025529 57 0 0.0 0.0 0.00 0.00 0.00 84 1013.0
20260510025028 58 0 0.0 0.0 0.00 0.00 0.00 84 1013.0
20260510024543 58 0 0.0 0.0 0.00 0.00 0.00 84 1013.0
20260510024029 58 0 0.0 0.0 0.00 0.00 0.00 83 1012.9
20260510023531 58 0 0.0 0.0 0.00 0.00 0.00 82 1012.9
20260510023051 59 0 0.0 0.0 0.00 0.00 0.00 82 1012.7
20260510022529 59 0 0.0 0.0 0.00 0.00 0.00 82 1012.6
20260510022030 59 0 0.0 0.0 0.00 0.00 0.00 81 1012.5
20260510021548 59 0 0.0 0.0 0.00 0.00 0.00 80 1012.4
20260510021028 60 0 0.0 0.0 0.00 0.00 0.00 80 1012.4
20260510020530 60 0 0.0 0.0 0.00 0.00 0.00 80 1012.3
20260510020050 60 0 0.0 0.0 0.00 0.00 0.00 79 1012.3
20260510015529 60 0 0.0 0.0 0.00 0.00 0.00 78 1012.3
20260510015030 61 0 0.0 0.0 0.00 0.00 0.00 77 1012.2
20260510014551 61 0 0.0 0.0 0.00 0.00 0.00 76 1012.1
20260510014030 62 0 0.0 0.0 0.00 0.00 0.00 75 1012.1
20260510013529 62 0 0.0 0.0 0.00 0.00 0.00 75 1012.0
20260510013046 63 0 0.0 0.0 0.00 0.00 0.00 74 1012.0
20260510012531 63 0 0.0 0.0 0.00 0.00 0.00 74 1011.9
20260510012030 64 0 0.0 0.0 0.00 0.00 0.00 73 1011.7
20260510011543 65 0 0.0 0.0 0.00 0.00 0.00 72 1011.7
20260510011029 65 0 0.0 0.0 0.00 0.00 0.00 71 1011.6
20260510010530 66 0 0.0 0.0 0.00 0.00 0.00 69 1011.5
20260510010041 67 0 0.0 0.0 0.00 0.00 0.00 68 1011.4
20260510005529 68 0 0.0 0.0 0.00 0.00 0.00 67 1011.4
20260510005029 68 0 0.0 0.0 0.00 0.00 0.00 66 1011.3
20260510004553 69 0 0.0 0.0 0.00 0.00 0.00 65 1011.3
20260510004029 70 0 0.0 0.0 0.00 0.00 0.00 63 1011.3
20260510003530 70 0 0.0 0.0 0.00 0.00 0.00 62 1011.3
20260510003048 71 0 0.0 0.0 0.00 0.00 0.00 60 1011.2
20260510002530 72 0 0.0 2.0 0.00 0.00 0.00 56 1011.2
20260510002029 72 0 0.0 2.0 0.00 0.00 0.00 55 1011.2
20260510001546 72 0 0.0 2.0 0.00 0.00 0.00 55 1011.1
20260510001029 72 212 0.0 4.0 0.00 0.00 0.00 53 1011.1
20260510000529 73 0 0.0 4.0 0.00 0.00 0.00 53 1011.1
20260510000045 73 197 0.0 4.0 0.00 0.00 0.00 52 1011.2
20260509235529 73 215 1.0 3.0 0.00 0.00 0.00 52 1011.1
20260509235029 73 0 0.0 3.0 0.00 0.00 0.00 52 1010.9
20260509234547 74 0 0.0 5.0 0.00 0.00 0.00 51 1011.0
20260509234029 74 238 1.0 5.0 0.00 0.00 0.00 52 1011.0
20260509233530 74 196 1.0 4.0 0.00 0.00 0.00 51 1010.9
20260509233101 74 207 1.0 4.0 0.00 0.00 0.00 50 1011.0
20260509232526 74 0 1.0 3.0 0.00 0.00 0.00 50 1011.0
20260509232028 74 0 1.0 3.0 0.00 0.00 0.00 49 1011.0
20260509231548 75 0 1.0 3.0 0.00 0.00 0.00 51 1011.0
20260509231027 75 0 0.0 2.0 0.00 0.00 0.00 50 1011.0
20260509230529 75 242 0.0 2.0 0.00 0.00 0.00 49 1010.9
20260509230038 75 0 0.0 2.0 0.00 0.00 0.00 49 1010.9
20260509225529 75 0 0.0 3.0 0.00 0.00 0.00 48 1011.0